TimeMST,TemperatureF,Dew PointF,Humidity,Sea Level PressureIn,VisibilityMPH,Wind Direction,Wind SpeedMPH,Gust SpeedMPH,PrecipitationIn,Events,Conditions,WindDirDegrees,DateUTC
12:14 AM,31.6,28.4,88,29.79,10.0,Calm,Calm,-,N/A,,Clear,0,2014-02-15 07:14:00
12:34 AM,32.0,28.8,88,29.78,10.0,Calm,Calm,-,N/A,,Clear,0,2014-02-15 07:34:00
12:54 AM,37.8,30.6,75,29.77,10.0,South,3.5,-,N/A,,Clear,180,2014-02-15 07:54:00
1:14 AM,52.2,30.0,43,29.76,10.0,West,28.8,38.0,N/A,,Clear,260,2014-02-15 08:14:00
1:34 AM,54.0,28.8,38,29.76,10.0,West,13.8,25.3,N/A,,Clear,280,2014-02-15 08:34:00
1:54 AM,51.1,29.1,43,29.77,10.0,WNW,11.5,-,N/A,,Clear,300,2014-02-15 08:54:00
2:14 AM,55.0,27.1,34,29.76,10.0,SSW,5.8,17.3,N/A,,Clear,200,2014-02-15 09:14:00
2:34 AM,54.0,27.5,36,29.77,10.0,SSW,11.5,16.1,N/A,,Clear,210,2014-02-15 09:34:00
2:54 AM,56.5,26.6,32,29.76,10.0,Calm,Calm,-,N/A,,Clear,0,2014-02-15 09:54:00
3:14 AM,53.1,27.3,37,29.75,10.0,East,8.1,-,N/A,,Clear,80,2014-02-15 10:14:00
3:34 AM,54.3,26.6,34,29.77,10.0,WSW,3.5,-,N/A,,Clear,250,2014-02-15 10:34:00
3:54 AM,54.1,27.3,36,29.77,10.0,West,4.6,19.6,N/A,,Clear,280,2014-02-15 10:54:00
4:14 AM,52.3,28.2,39,29.77,10.0,West,8.1,-,N/A,,Clear,280,2014-02-15 11:14:00
4:34 AM,53.1,28.2,38,29.78,10.0,WNW,9.2,-,N/A,,Clear,300,2014-02-15 11:34:00
4:54 AM,52.7,28.2,39,29.79,10.0,Calm,Calm,-,N/A,,Clear,0,2014-02-15 11:54:00
5:14 AM,52.7,28.6,40,29.80,10.0,NNW,8.1,-,N/A,,Clear,330,2014-02-15 12:14:00
5:34 AM,51.3,28.9,42,29.80,10.0,North,5.8,-,N/A,,Clear,360,2014-02-15 12:34:00
5:54 AM,51.3,29.3,43,29.79,10.0,NNW,5.8,-,N/A,,Clear,340,2014-02-15 12:54:00
6:14 AM,49.8,29.1,45,29.81,10.0,North,8.1,-,N/A,,Clear,350,2014-02-15 13:14:00
6:34 AM,51.3,28.4,41,29.83,10.0,Calm,Calm,-,N/A,,Clear,0,2014-02-15 13:34:00
6:54 AM,52.7,24.6,34,29.83,10.0,West,11.5,19.6,N/A,,Clear,260,2014-02-15 13:54:00
7:14 AM,52.3,24.3,34,29.81,10.0,NW,4.6,-,N/A,,Clear,310,2014-02-15 14:14:00
7:34 AM,53.6,23.7,31,29.83,10.0,WNW,10.4,-,N/A,,Clear,300,2014-02-15 14:34:00
7:54 AM,54.3,24.6,32,29.86,10.0,NE,21.9,27.6,N/A,,Clear,40,2014-02-15 14:54:00
8:14 AM,38.7,32.0,77,29.90,10.0,East,17.3,26.5,N/A,,Clear,80,2014-02-15 15:14:00
8:34 AM,36.7,32.4,84,29.92,10.0,ENE,17.3,26.5,N/A,,Clear,70,2014-02-15 15:34:00
8:54 AM,36.7,32.2,84,29.94,10.0,ENE,15.0,24.2,N/A,,Clear,70,2014-02-15 15:54:00
9:14 AM,37.4,32.4,82,29.98,10.0,NE,10.4,20.7,N/A,,Clear,50,2014-02-15 16:14:00
9:34 AM,37.0,32.0,82,30.01,10.0,NE,9.2,16.1,N/A,,Scattered Clouds,40,2014-02-15 16:34:00
9:54 AM,37.4,32.0,81,30.04,10.0,NE,8.1,-,N/A,,Overcast,50,2014-02-15 16:54:00
10:14 AM,37.8,32.2,80,30.05,10.0,ENE,10.4,-,N/A,,Overcast,60,2014-02-15 17:14:00
10:34 AM,38.5,32.0,78,30.07,10.0,East,5.8,-,N/A,,Overcast,80,2014-02-15 17:34:00
10:54 AM,38.5,32.2,78,30.08,10.0,ESE,5.8,-,N/A,,Overcast,120,2014-02-15 17:54:00
11:14 AM,39.2,32.2,76,30.07,10.0,Calm,Calm,-,N/A,,Overcast,0,2014-02-15 18:14:00
11:34 AM,40.1,32.2,73,30.07,10.0,SE,4.6,-,N/A,,Overcast,130,2014-02-15 18:34:00
11:54 AM,39.9,32.4,74,30.06,10.0,Calm,Calm,-,N/A,,Overcast,0,2014-02-15 18:54:00
12:14 PM,40.6,32.4,72,30.06,10.0,East,5.8,-,N/A,,Overcast,100,2014-02-15 19:14:00
12:34 PM,42.1,32.9,70,30.05,10.0,East,9.2,-,N/A,,Overcast,90,2014-02-15 19:34:00
12:54 PM,41.4,32.7,71,30.05,10.0,East,5.8,-,N/A,,Mostly Cloudy,80,2014-02-15 19:54:00
1:14 PM,41.9,32.7,70,30.05,10.0,NE,5.8,-,N/A,,Mostly Cloudy,50,2014-02-15 20:14:00
1:34 PM,42.3,32.9,69,30.06,10.0,ENE,6.9,-,N/A,,Mostly Cloudy,60,2014-02-15 20:34:00
1:54 PM,42.1,33.1,70,30.05,10.0,ENE,3.5,-,N/A,,Overcast,70,2014-02-15 20:54:00
2:14 PM,41.5,32.7,71,30.05,10.0,ENE,5.8,-,N/A,,Mostly Cloudy,60,2014-02-15 21:14:00
2:34 PM,42.6,33.1,69,30.05,10.0,East,5.8,-,N/A,,Mostly Cloudy,80,2014-02-15 21:34:00
2:54 PM,41.2,32.9,72,30.05,10.0,ESE,6.9,-,N/A,,Overcast,110,2014-02-15 21:54:00
3:14 PM,41.0,32.5,72,30.05,10.0,ESE,10.4,-,N/A,,Overcast,110,2014-02-15 22:14:00
3:34 PM,40.6,32.2,72,30.04,10.0,East,10.4,-,N/A,,Overcast,100,2014-02-15 22:34:00
3:54 PM,40.1,32.0,73,30.05,10.0,East,10.4,-,N/A,,Scattered Clouds,80,2014-02-15 22:54:00
4:14 PM,39.4,32.0,75,30.05,10.0,East,9.2,-,N/A,,Clear,100,2014-02-15 23:14:00
4:34 PM,39.0,32.0,76,30.05,10.0,ESE,8.1,-,N/A,,Clear,110,2014-02-15 23:34:00
4:54 PM,38.1,31.5,77,30.07,10.0,ESE,8.1,-,N/A,,Clear,110,2014-02-15 23:54:00
5:14 PM,37.0,31.1,79,30.07,10.0,ESE,10.4,-,N/A,,Clear,120,2014-02-16 00:14:00
5:34 PM,35.6,30.9,83,30.09,10.0,ESE,5.8,-,N/A,,Clear,110,2014-02-16 00:34:00
5:54 PM,34.9,30.2,83,30.09,10.0,ESE,5.8,-,N/A,,Clear,110,2014-02-16 00:54:00
6:14 PM,34.3,30.0,84,30.09,10.0,Calm,Calm,-,N/A,,Scattered Clouds,0,2014-02-16 01:14:00
6:34 PM,33.6,29.3,84,30.09,10.0,Calm,Calm,-,N/A,,Clear,0,2014-02-16 01:34:00
6:54 PM,32.0,29.8,92,30.09,10.0,Calm,Calm,-,N/A,,Clear,0,2014-02-16 01:54:00
7:14 PM,31.5,29.1,91,30.08,10.0,Calm,Calm,-,N/A,,Clear,0,2014-02-16 02:14:00
7:34 PM,31.3,29.5,93,30.08,10.0,Calm,Calm,-,N/A,,Clear,0,2014-02-16 02:34:00
7:54 PM,30.2,28.8,94,30.07,10.0,Calm,Calm,-,N/A,,Clear,0,2014-02-16 02:54:00
8:14 PM,30.2,28.4,93,30.08,10.0,NNE,3.5,-,N/A,,Clear,20,2014-02-16 03:14:00
8:34 PM,30.0,28.4,94,30.07,10.0,Calm,Calm,-,N/A,,Scattered Clouds,0,2014-02-16 03:34:00
8:54 PM,30.2,29.3,96,30.06,10.0,Calm,Calm,-,N/A,,Clear,0,2014-02-16 03:54:00
9:14 PM,28.4,27.1,95,30.06,10.0,Calm,Calm,-,N/A,,Clear,0,2014-02-16 04:14:00
9:34 PM,28.6,27.9,97,30.05,10.0,Calm,Calm,-,N/A,,Clear,0,2014-02-16 04:34:00
9:54 PM,29.3,28.4,96,30.05,10.0,Calm,Calm,-,N/A,,Clear,0,2014-02-16 04:54:00
10:14 PM,28.4,27.5,96,30.04,10.0,Calm,Calm,-,N/A,,Clear,0,2014-02-16 05:14:00
10:34 PM,28.2,27.3,96,30.04,10.0,Calm,Calm,-,N/A,,Clear,0,2014-02-16 05:34:00
10:54 PM,27.5,26.8,97,30.02,10.0,Calm,Calm,-,N/A,,Clear,0,2014-02-16 05:54:00
11:14 PM,28.0,27.3,97,30.00,10.0,South,3.5,-,N/A,,Scattered Clouds,180,2014-02-16 06:14:00
11:34 PM,28.2,27.7,98,30.00,10.0,Calm,Calm,-,N/A,,Clear,0,2014-02-16 06:34:00
11:54 PM,28.2,27.5,97,29.99,10.0,Calm,Calm,-,N/A,,Clear,0,2014-02-16 06:54:00